Other Public Products
Issued by NWS Grand Forks, ND

Home | Current Version | Previous Version | Graphics & Text | Print | Product List | Glossary On
Versions: 1 2 3 4 5 6 7 8 9 10 11 12 13 14 15 16 17 18 19 20 21 22 23 24 25 26 27 28 29 30 31 32 33 34 35 36 37 38 39 40 41 42 43 44 45 46 47 48 49 50
000
FPUS83 KFGF 230410
OPUFGF
PRAIRIE TO PINES WEATHER ROUNDUP
NATIONAL WEATHER SERVICE EASTERN NORTH DAKOTA/GRAND FORKS ND
1100 PM CDT WED OCT 22 2014

 **SATELLITE DATA USED TO AUGMENT SKY COVER AT AUTOMATED STATIONS**
 *****  WEATHER ACROSS EASTERN NORTH DAKOTA  *****

CITY           SKY/WX    TMP DP  RH WIND       PRES   REMARKS
GRAND FORKS    PTCLDY    49  47  93 S8        29.85R
GRAND FORKS AF FAIR      49  49  99 SW10      29.85S
GRAND CITY NWS   N/A     48 N/A N/A SW2         N/A
BUXTON         NOT AVBL
DEVILS LAKE    CLOUDY    54  41  62 SW9       29.82S
FARGO          PTCLDY    53  50  89 S10       29.90R
WAHPETON ARPT  MOCLDY    52  48  87 S3        29.93R
$$

 *****  WEATHER ACROSS CENTRAL AND WESTERN NORTH DAKOTA  *****

CITY           SKY/WX    TMP DP  RH WIND       PRES   REMARKS
JAMESTOWN      CLEAR     43  40  89 S6        29.89R
BISMARCK       CLEAR     45  35  68 SW3       29.92S
MINOT          CLOUDY    55  41  59 SW8       29.83S
MINOT AFB      PTCLDY    52  44  73 SW8       29.82S
GARRISON         N/A     42  38  85 W7        29.87S
WILLISTON      CLEAR     44  32  62 W7        29.88R
DICKINSON      CLEAR     44  31  60 SW8       29.91F
HETTINGER      CLEAR     33  27  78 CALM      29.97S
$$

 *****  OTHER OBSERVATIONS NORTHEAST NORTH DAKOTA  *****

CITY           SKY/WX    TMP DP  RH WIND       PRES   REMARKS
WALHALLA       FAIR      50  50 100 S5        29.79S
LANGDON        CLOUDY    50  46  87 SW12      29.80S
CAVALIER       CLOUDY    50  48  93 S8        29.81R
GRAFTON        NOT AVBL
CANDO          CLOUDY    50  45  81 SW8       29.82S
FORT TOTTEN    NOT AVBL
ROLLA          MOCLDY    52  45  76 W12       29.81R
RUGBY          FAIR      54  45  71 W10       29.82S
 ***** THE ABOVE OBSERVATIONS ARE NON NWS ARE NOT QUALITY
        CONTROLLED AND MAY MIS-REPORT RAIN FOR SNOW...
$$

 *****  OTHER OBSERVATIONS SOUTHEAST NORTH DAKOTA *****

CITY           SKY/WX    TMP DP  RH WIND       PRES   REMARKS
COOPERSTOWN    NOT AVBL
VALLEY CITY    FAIR      48  48 100 SW10      29.89S
OAKES            N/A     48  48 100 SW8       29.92S
GWINNER        CLEAR     52  52 100 SW9       29.93S
SHEYENNE NWR     N/A     49  48  95 SW5       29.95
BUFFALO        NOT AVBL
WYNDMERE         N/A     52  52 100 SW5         N/A
 ***** THE ABOVE OBSERVATIONS ARE NON NWS ARE NOT QUALITY
       CONTROLLED AND MAY MIS-REPORT RAIN FOR SNOW...
$$

  *****  WEATHER ACROSS NORTHERN MINNESOTA  *****

CITY           SKY/WX    TMP DP  RH WIND       PRES   REMARKS
FLAG ISLAND    DRIZZLE   48  48 100 S15       29.83F
WARROAD        CLOUDY    52  48  87 S6        29.85S
ROSEAU         CLOUDY    54  48  82 S10       29.83F
HALLOCK        MOCLDY    52  48  87 S12       29.81S
THF RVR FALLS  CLOUDY    54  52  94 S12       29.87S
HALSTAD          N/A     50  48  93 S6          N/A
FOSSTON        CLOUDY    52  52 100 S9        29.89F
BAUDETTE       CLOUDY    54  44  69 S15G22    29.87F
WASKISH        DRIZZLE   52  46  82 CALM      29.89F
CROOKSTON      FAIR      52  52 100 S9        29.87S
$$
  *****  WEATHER ACROSS CENTRAL AND WEST MINNESOTA  *****

CITY           SKY/WX    TMP DP  RH WIND       PRES   REMARKS
BEMIDJI        CLOUDY    53  47  78 S10G16    29.91S
PARK RAPIDS    CLOUDY    51  50  96 S12       29.93S
WADENA         CLOUDY    52  52 100 S8        29.94R FOG
DETROIT LAKES  CLOUDY    54  52  94 S5        29.92F
MOORHEAD       PTCLDY    54  54 100 S5        29.91S
FERGUS FALLS   CLOUDY    54  52  94 S5        29.94R
ELBOW LAKE     CLOUDY    54  53  96 SW5       29.93F
MORRIS MN      CLOUDY    55  54  94 CALM      29.94F
STAPLES        LGT RAIN  52  48  87 S5        29.95R
WHEATON        CLOUDY    52  48  87 SW5       29.96R
$$
  *****  WEATHER ELSEWHERE ACROSS MINNESOTA  *****

CITY           SKY/WX    TMP DP  RH WIND       PRES   REMARKS
DULUTH         MOCLDY    51  34  52 S10       30.02F
INTRNTL FALLS  CLOUDY    54  40  59 S10G16    29.91F
ELY            PTCLDY    46  36  66 S7        30.00F
CLOQUET        PTCLDY    48  36  61 SE3       30.02F
BRAINERD       CLOUDY    53  43  68 S20G29    29.96F
HIBBING        PTCLDY    51  36  56 S8        29.99F
ALEXANDRIA     CLOUDY    55  55 100 SW6       29.96S
SAINT CLOUD    CLOUDY    57  44  62 S12       30.00S
MINNEAPOLIS    CLOUDY    55  40  56 S9G17     30.05F
$$

  *****  WEATHER ACROSS SOUTH DAKOTA  *****

CITY           SKY/WX    TMP DP  RH WIND       PRES   REMARKS
SIOUX FALLS    CLOUDY    54  53  97 SW3       30.02S
BROOKINGS      NOT AVBL
WATERTOWN      PTCLDY    49  49 100 SW9       29.96S
HURON          CLEAR     50  47  89 SW7       29.98S
SISSETON         N/A     54  51  90 CALM      29.93R
ABERDEEN       CLEAR     47  45  93 SW7       29.96R
MITCHELL       CLEAR     50  49  96 S6        30.01S
PIERRE         CLEAR     48  38  68 SW6       29.98S
MOBRIDGE       CLEAR     48  37  65 NW7       29.94R
RAPID CITY     CLEAR     37  31  78 NW6       30.02S
$$

  *****  SOME WEATHER IN NEARBY STATES *****

CITY           SKY/WX    TMP DP  RH WIND       PRES   REMARKS
GLASGOW MT     CLEAR     45  31  58 S8        29.87R
GREAT FALLS MT CLEAR     47  34  60 S13       29.88F
CHEYENNE WY    PTCLDY    46  29  51 S6        30.18R
SCOTTSBLUFF NE CLEAR     46  29  51 E3        30.10R
OMAHA NE       CLOUDY    63  60  90 SE9       30.05R
DES MOINES IA  MOCLDY    57  44  62 SE12      30.11F
DAVENPORT IA   CLEAR     44  36  73 SE10      30.22F
CHICAGO IL     CLEAR     39  35  86 CALM      30.27S
EAU CLAIRE WI  CLOUDY    53  37  54 S13       30.11F
LA CROSSE WI   MOCLDY    54  37  52 S9        30.15F
$$

  *****  SOME NATIONAL WEATHER *****

CITY           SKY/WX    TMP DP  RH WIND       PRES   REMARKS
LA GUARDIA NY  CLOUDY    52  47  83 N16G29    29.73S
RALEIGH NC     CLEAR     52  40  63 NW5       30.02F
ATLANTA GA     CLEAR     52  42  69 N8        30.11S
NEW ORLEANS LA CLEAR     70  53  54 NE12      30.08R
OKLAHOMA CITY  CLOUDY    62  59  90 E5        30.12S
ALBUQUERQUE NM CLEAR     59  40  49 S6        30.18R
SALT LAKE CITY MOCLDY    49  34  56 S6        30.17S
LOS ANGELES CA PTCLDY    68  64  87 W6        29.94S
BOISE ID       CLOUDY    63  30  28 SE10G16   30.00R
SEATTLE WA     CLOUDY    56  52  86 W10       29.63R
$$

*** WEATHER ACROSS MANITOBA...SASKATCHEWAN AND ONTARIO ***
                ***ONTARIO***

CITY           SKY/WX    TMP DP  RH WIND       PRES   REMARKS
GERALDTON      PTCLDY    36  34  93 S6        30.11S
THUNDER BAY    MOCLDY    46  41  81 NE3       30.09F
SIOUX LOOKOUT  CLOUDY    50  39  66 S12G21    29.92S
TORONTO        PTCLDY    46  41  81 N13       30.23F
BIG TROUT LK   PTCLDY    48  39  71 S8        29.81F
PICKLE LAKE    NOT AVBL
DRYDEN         CLOUDY    54  41  62 S16G23    29.89F
KENORA         LGT RAIN  55  45  67 S16G28    29.84S
$$
                *** MANITOBA***

CITY           SKY/WX    TMP DP  RH WIND       PRES   REMARKS
BRANDON        CLOUDY    54  46  76 W18       29.75R
DAUPHIN        MOCLDY    52  46  82 W17G23    29.69R
ISLAND LAKE    CLOUDY    52  45  76 SE6       29.69F
PILOT MOUND      N/A     54  45  71 SW9         N/A
THE PAS        PTCLDY    46  43  87 N6        29.65S
THOMPSON       CLOUDY    45  45 100 NE12G17   29.70S
WINNIPEG       MOCLDY    52  50  93 S13       29.75S
LYNN LAKE      FOG       39  39 100 NE8       29.77S VSB 3/8
CHURCHILL      CLOUDY    36  36 100 NE10      29.87R
GILLAM         CLOUDY    39  39 100 NE9       29.77R
$$
                ***SASKATCHEWAN***

CITY           SKY/WX    TMP DP  RH WIND       PRES   REMARKS
ESTEVAN        PTCLDY    41  39  93 SW8       29.82S
KINDERSLEY     MOCLDY    45  36  70 SE12      29.71F
LLOYDMINSTER   NOT AVBL
PRINCE ALBERT  MOCLDY    45  45 100 CALM      29.73S
REGINA         CLEAR     39  39 100 SW6       29.79S



USA.gov is the U.S. government's official web portal to all federal, state and local government web resources and services.